When you browse on this site, cookies collect data to enhance your experience and personalize the content and advertising you see.
Visit our Privacy Policy to learn more. By continuing to use the site, you agree to this use of cookies and data.
  • In United Kingdom
  • List of Countries
  • For 7 days
  • Water Temperature
  • Satellite Maps
  • Weather Map
  • Weather Widgets
  • user-avatar
    Login

    Hourly Weather Jablowko

    Today, 17 January, Thursday

    Time Temperature Precipitation Wind Pressure Humidity
    00:00 +2°C° 0 mm 6 mps 741 mmHg 86%
    01:00 +2°C° 0 mm 5 mps 741 mmHg 85%
    02:00 +2°C° 0 mm 5 mps 740 mmHg 85%
    03:00 +1°C° 0 mm 6 mps 739 mmHg 84%
    04:00 0°C° 0 mm 7 mps 739 mmHg 84%
    05:00 0°C° 0.1 mm 7 mps 738 mmHg 84%
    06:00 0°C° 0.1 mm 7 mps 738 mmHg 83%
    07:00 0°C° 0.1 mm 7 mps 738 mmHg 83%
    08:00 0°C° 0.1 mm 7 mps 738 mmHg 81%
    09:00 +2°C° 0.1 mm 7 mps 738 mmHg 80%
    10:00 +2°C° 0.1 mm 7 mps 738 mmHg 78%
    11:00 +2°C° 0 mm 7 mps 738 mmHg 77%
    12:00 +3°C° 0 mm 6 mps 739 mmHg 76%
    13:00 +3°C° 0 mm 6 mps 739 mmHg 75%
    14:00 +3°C° 0 mm 6 mps 739 mmHg 75%
    15:00 +2°C° 0 mm 5 mps 739 mmHg 74%
    16:00 +2°C° 0 mm 5 mps 740 mmHg 74%
    17:00 +1°C° 0 mm 5 mps 740 mmHg 75%
    18:00 +1°C° 0 mm 5 mps 740 mmHg 76%
    19:00 +1°C° 0 mm 5 mps 740 mmHg 77%
    20:00 +1°C° 0 mm 5 mps 740 mmHg 78%
    21:00 0°C° 0 mm 5 mps 740 mmHg 80%
    22:00 0°C° 0 mm 4 mps 740 mmHg 81%
    23:00 0°C° 0.4 mm 4 mps 740 mmHg 84%

    Tomorrow, 18 January, Friday

    Time Temperature Precipitation Wind Pressure Humidity
    00:00 +1°C° 0.4 mm 3 mps 740 mmHg 87%
    01:00 +1°C° 0.4 mm 2 mps 740 mmHg 90%
    02:00 0°C° 0.5 mm 3 mps 740 mmHg 89%
    03:00 -1°C° 0.5 mm 4 mps 740 mmHg 87%
    04:00 -1°C° 0.5 mm 4 mps 740 mmHg 85%
    05:00 -1°C° 0.2 mm 4 mps 741 mmHg 86%
    06:00 -1°C° 0.2 mm 4 mps 742 mmHg 87%
    07:00 -2°C° 0.2 mm 5 mps 742 mmHg 88%
    08:00 -2°C° 0.6 mm 5 mps 744 mmHg 84%
    09:00 -3°C° 0.6 mm 6 mps 745 mmHg 79%
    10:00 -3°C° 0.6 mm 6 mps 746 mmHg 75%
    11:00 -3°C° 0 mm 6 mps 747 mmHg 73%
    12:00 -2°C° 0 mm 5 mps 749 mmHg 71%
    13:00 -2°C° 0 mm 5 mps 750 mmHg 70%
    14:00 -2°C° 0 mm 4 mps 750 mmHg 72%
    15:00 -3°C° 0 mm 4 mps 751 mmHg 75%
    16:00 -2°C° 0 mm 3 mps 751 mmHg 77%
    17:00 -2°C° 0 mm 3 mps 752 mmHg 77%
    18:00 -4°C° 0 mm 3 mps 752 mmHg 77%
    19:00 -4°C° 0 mm 3 mps 753 mmHg 78%
    20:00 -4°C° 0 mm 3 mps 753 mmHg 78%
    21:00 -4°C° 0 mm 3 mps 754 mmHg 79%
    22:00 -5°C° 0 mm 3 mps 754 mmHg 79%
    23:00 -4°C° 0 mm 3 mps 754 mmHg 82%

    Day after tomorrow, 19 January, Saturday

    Time Temperature Precipitation Wind Pressure Humidity
    00:00 -4°C° 0 mm 3 mps 755 mmHg 85%
    01:00 -4°C° 0 mm 3 mps 755 mmHg 87%
    02:00 -4°C° 0 mm 3 mps 755 mmHg 87%
    03:00 -4°C° 0 mm 3 mps 755 mmHg 87%
    04:00 -4°C° 0 mm 3 mps 755 mmHg 87%
    05:00 -5°C° 0 mm 3 mps 755 mmHg 87%
    06:00 -5°C° 0 mm 3 mps 755 mmHg 88%
    07:00 -5°C° 0 mm 3 mps 755 mmHg 89%
    08:00 -4°C° 0 mm 3 mps 756 mmHg 87%
    09:00 -4°C° 0 mm 3 mps 756 mmHg 86%
    10:00 -3°C° 0 mm 4 mps 756 mmHg 84%
    11:00 -1°C° 0 mm 3 mps 756 mmHg 82%
    12:00 -1°C° 0 mm 3 mps 756 mmHg 80%
    13:00 0°C° 0 mm 3 mps 756 mmHg 78%
    14:00 -1°C° 0 mm 3 mps 756 mmHg 81%
    15:00 -1°C° 0 mm 3 mps 756 mmHg 83%
    16:00 -2°C° 0 mm 2 mps 756 mmHg 85%
    17:00 -2°C° 0 mm 2 mps 756 mmHg 86%
    18:00 -2°C° 0 mm 2 mps 756 mmHg 87%
    19:00 -2°C° 0 mm 2 mps 756 mmHg 87%
    20:00 -2°C° 0 mm 2 mps 756 mmHg 88%
    21:00 -2°C° 0 mm 2 mps 756 mmHg 89%
    22:00 -3°C° 0 mm 2 mps 756 mmHg 90%
    23:00 -3°C° 0 mm 2 mps 756 mmHg 90%

    20 January, Sunday

    Time Temperature Precipitation Wind Pressure Humidity
    00:00 -3°C° 0 mm 2 mps 756 mmHg 89%
    01:00 -3°C° 0 mm 2 mps 756 mmHg 89%
    02:00 -3°C° 0 mm 2 mps 756 mmHg 89%
    03:00 -4°C° 0 mm 2 mps 755 mmHg 88%
    04:00 -4°C° 0 mm 2 mps 755 mmHg 88%
    05:00 -4°C° 0 mm 2 mps 755 mmHg 87%
    06:00 -4°C° 0 mm 2 mps 755 mmHg 87%
    07:00 -4°C° 0 mm 2 mps 755 mmHg 87%
    08:00 -3°C° 0 mm 2 mps 755 mmHg 85%
    09:00 -3°C° 0 mm 2 mps 755 mmHg 83%
    10:00 -3°C° 0 mm 2 mps 755 mmHg 81%
    11:00 -2°C° 0 mm 2 mps 755 mmHg 79%
    12:00 -1°C° 0 mm 2 mps 755 mmHg 78%
    13:00 -1°C° 0 mm 2 mps 755 mmHg 76%
    14:00 -1°C° 0 mm 2 mps 755 mmHg 79%
    15:00 -2°C° 0 mm 2 mps 755 mmHg 82%
    16:00 -2°C° 0 mm 2 mps 755 mmHg 85%
    17:00 -3°C° 0 mm 2 mps 755 mmHg 87%
    18:00 -3°C° 0 mm 2 mps 755 mmHg 89%
    19:00 -3°C° 0 mm 2 mps 755 mmHg 90%
    20:00 -3°C° 0 mm 2 mps 756 mmHg 91%
    21:00 -3°C° 0 mm 2 mps 756 mmHg 91%
    22:00 -3°C° 0 mm 2 mps 756 mmHg 92%
    23:00 -3°C° 0 mm 2 mps 756 mmHg 91%

    21 January, Monday

    Time Temperature Precipitation Wind Pressure Humidity
    00:00 -3°C° 0 mm 2 mps 756 mmHg 91%
    01:00 -4°C° 0 mm 3 mps 757 mmHg 91%
    02:00 -3°C° 0 mm 2 mps 757 mmHg 91%
    03:00 -3°C° 0 mm 2 mps 757 mmHg 91%
    04:00 -3°C° 0 mm 2 mps 757 mmHg 91%
    05:00 -3°C° 0 mm 2 mps 757 mmHg 91%
    06:00 -1°C° 0 mm 1 mps 757 mmHg 92%
    07:00 -1°C° 0 mm 1 mps 757 mmHg 92%
    08:00 0°C° 0 mm 1 mps 757 mmHg 91%
    09:00 0°C° 0 mm 1 mps 758 mmHg 89%
    10:00 -1°C° 0 mm 0 mps 758 mmHg 87%
    11:00 +1°C° 0 mm 1 mps 758 mmHg 86%
    12:00 +1°C° 0 mm 1 mps 758 mmHg 84%
    13:00 +1°C° 0 mm 1 mps 758 mmHg 82%
    14:00 +1°C° 0 mm 1 mps 758 mmHg 84%
    15:00 0°C° 0 mm 1 mps 757 mmHg 85%
    16:00 -1°C° 0 mm 1 mps 757 mmHg 87%
    17:00 -1°C° 0 mm 1 mps 757 mmHg 88%
    18:00 -1°C° 0 mm 1 mps 757 mmHg 89%
    19:00 -1°C° 0 mm 1 mps 757 mmHg 89%
    20:00 -2°C° 0 mm 1 mps 757 mmHg 90%
    21:00 -2°C° 0 mm 1 mps 757 mmHg 91%
    22:00 -4°C° 0 mm 2 mps 757 mmHg 91%
    23:00 -4°C° 0 mm 2 mps 757 mmHg 92%

    22 January, Tuesday

    Time Temperature Precipitation Wind Pressure Humidity
    00:00 -4°C° 0 mm 2 mps 756 mmHg 92%
    01:00 -4°C° 0 mm 2 mps 756 mmHg 93%
    02:00 -4°C° 0 mm 2 mps 756 mmHg 93%
    03:00 -5°C° 0 mm 2 mps 755 mmHg 93%
    04:00 -5°C° 0 mm 2 mps 755 mmHg 93%
    05:00 -5°C° 0 mm 2 mps 755 mmHg 93%
    06:00 -5°C° 0 mm 2 mps 755 mmHg 93%
    07:00 -5°C° 0 mm 2 mps 754 mmHg 93%
    08:00 -5°C° 0 mm 2 mps 754 mmHg 91%
    09:00 -5°C° 0 mm 3 mps 754 mmHg 88%
    10:00 -5°C° 0 mm 3 mps 754 mmHg 86%
    11:00 -4°C° 0 mm 3 mps 754 mmHg 84%
    12:00 -4°C° 0 mm 3 mps 754 mmHg 81%
    13:00 -2°C° 0 mm 3 mps 754 mmHg 79%
    14:00 -4°C° 0 mm 3 mps 753 mmHg 81%
    15:00 -4°C° 0 mm 3 mps 753 mmHg 84%
    16:00 -4°C° 0 mm 2 mps 753 mmHg 86%
    17:00 -4°C° 0 mm 2 mps 753 mmHg 87%
    18:00 -5°C° 0 mm 3 mps 753 mmHg 87%
    19:00 -6°C° 0 mm 3 mps 753 mmHg 88%
    20:00 -6°C° 0 mm 3 mps 753 mmHg 88%
    21:00 -6°C° 0 mm 3 mps 753 mmHg 88%
    22:00 -7°C° 0 mm 3 mps 753 mmHg 89%
    23:00 -7°C° 0 mm 3 mps 753 mmHg 89%
    Show more